Time,TemperatureF,DewpointF,PressureIn,WindDirection,WindDirectionDegrees,WindSpeedMPH,WindSpeedGustMPH,Humidity,HourlyPrecipIn,Conditions,Clouds,dailyrainin,SoftwareType,DateUTC
2013-03-23 00:03:00,39.0,23.6,29.95,West,270,0.0,0.0,54,0.00,,,0.00,WUHU216HW,2013-03-23 04:03:00,
2013-03-23 00:08:00,39.0,23.6,29.95,West,270,0.0,0.0,54,0.00,,,0.00,WUHU216HW,2013-03-23 04:08:00,
2013-03-23 00:13:00,39.0,23.6,29.95,West,270,0.0,0.0,54,0.00,,,0.00,WUHU216HW,2013-03-23 04:13:00,
2013-03-23 00:18:00,39.0,23.6,29.95,West,270,0.0,0.0,54,0.00,,,0.00,WUHU216HW,2013-03-23 04:18:00,
2013-03-23 00:23:00,39.0,23.6,29.95,West,270,0.0,0.0,54,0.00,,,0.00,WUHU216HW,2013-03-23 04:23:00,
2013-03-23 00:28:00,39.0,24.0,29.95,West,270,0.0,0.0,55,0.00,,,0.00,WUHU216HW,2013-03-23 04:28:00,
2013-03-23 00:33:00,38.8,23.9,29.95,West,270,0.0,0.0,55,0.00,,,0.00,WUHU216HW,2013-03-23 04:33:00,
2013-03-23 00:38:00,38.8,23.9,29.94,West,270,0.0,0.0,55,0.00,,,0.00,WUHU216HW,2013-03-23 04:38:00,
2013-03-23 00:43:00,38.8,24.3,29.95,West,270,0.0,0.0,56,0.00,,,0.00,WUHU216HW,2013-03-23 04:43:00,
2013-03-23 00:48:00,38.6,24.2,29.95,West,270,0.0,0.0,56,0.00,,,0.00,WUHU216HW,2013-03-23 04:48:00,
2013-03-23 00:53:00,38.4,24.0,29.95,West,270,0.0,0.0,56,0.00,,,0.00,WUHU216HW,2013-03-23 04:53:00,
2013-03-23 00:59:00,38.4,24.0,29.95,West,270,0.0,0.0,56,0.00,,,0.00,WUHU216HW,2013-03-23 04:59:00,
2013-03-23 01:04:00,38.4,24.0,29.94,West,270,0.0,0.0,56,0.00,,,0.00,WUHU216HW,2013-03-23 05:04:00,
2013-03-23 01:09:00,38.3,24.3,29.94,West,270,0.0,0.0,57,0.00,,,0.00,WUHU216HW,2013-03-23 05:09:00,
2013-03-23 01:14:00,38.3,24.3,29.95,West,270,0.0,0.0,57,0.00,,,0.00,WUHU216HW,2013-03-23 05:14:00,
2013-03-23 01:19:00,38.3,24.3,29.95,West,270,0.0,0.0,57,0.00,,,0.00,WUHU216HW,2013-03-23 05:19:00,
2013-03-23 01:24:00,38.1,24.1,29.94,West,270,0.0,0.0,57,0.00,,,0.00,WUHU216HW,2013-03-23 05:24:00,
2013-03-23 01:29:00,38.1,24.1,29.95,West,270,0.0,0.0,57,0.00,,,0.00,WUHU216HW,2013-03-23 05:29:00,
2013-03-23 01:34:00,38.1,23.9,29.95,West,270,0.0,0.0,57,0.00,,,0.00,WUHU216HW,2013-03-23 05:34:00,
2013-03-23 01:39:00,37.9,23.9,29.95,West,270,0.0,0.0,57,0.00,,,0.00,WUHU216HW,2013-03-23 05:39:00,
2013-03-23 01:44:00,37.9,23.9,29.94,West,270,0.0,0.0,57,0.00,,,0.00,WUHU216HW,2013-03-23 05:44:00,
2013-03-23 01:49:00,37.9,23.9,29.94,West,270,0.0,0.0,57,0.00,,,0.00,WUHU216HW,2013-03-23 05:49:00,
2013-03-23 01:54:00,37.9,23.9,29.94,West,270,0.0,0.0,57,0.00,,,0.00,WUHU216HW,2013-03-23 05:54:00,
2013-03-23 01:59:00,37.9,24.4,29.94,West,270,0.0,0.0,58,0.00,,,0.00,WUHU216HW,2013-03-23 05:59:00,
2013-03-23 02:04:00,37.7,24.2,29.94,West,270,0.0,0.0,58,0.00,,,0.00,WUHU216HW,2013-03-23 06:04:00,
2013-03-23 02:09:00,37.7,24.2,29.93,West,270,0.0,0.0,58,0.00,,,0.00,WUHU216HW,2013-03-23 06:09:00,
2013-03-23 02:14:00,37.7,24.2,29.94,West,270,0.0,0.0,58,0.00,,,0.00,WUHU216HW,2013-03-23 06:14:00,
2013-03-23 02:19:00,37.7,24.2,29.94,West,270,0.0,0.0,58,0.00,,,0.00,WUHU216HW,2013-03-23 06:19:00,
2013-03-23 02:24:00,37.7,24.2,29.93,West,270,0.0,0.0,58,0.00,,,0.00,WUHU216HW,2013-03-23 06:24:00,
2013-03-23 02:29:00,37.5,24.5,29.94,West,270,0.0,0.0,59,0.00,,,0.00,WUHU216HW,2013-03-23 06:29:00,
2013-03-23 02:34:00,37.5,24.5,29.94,West,270,0.0,0.0,59,0.00,,,0.00,WUHU216HW,2013-03-23 06:34:00,
2013-03-23 02:39:00,37.5,24.5,29.93,West,270,0.0,0.0,59,0.00,,,0.00,WUHU216HW,2013-03-23 06:39:00,
2013-03-23 02:44:00,37.4,24.3,29.93,West,270,0.0,0.0,59,0.00,,,0.00,WUHU216HW,2013-03-23 06:44:00,
2013-03-23 02:49:00,37.4,24.3,29.93,West,270,0.0,0.0,59,0.00,,,0.00,WUHU216HW,2013-03-23 06:49:00,
2013-03-23 02:54:00,37.4,24.3,29.93,West,270,0.0,0.0,59,0.00,,,0.00,WUHU216HW,2013-03-23 06:54:00,
2013-03-23 02:59:00,37.2,24.2,29.93,West,270,0.0,0.0,59,0.00,,,0.00,WUHU216HW,2013-03-23 06:59:00,
2013-03-23 03:04:00,37.2,24.6,29.94,West,270,0.0,0.0,60,0.00,,,0.00,WUHU216HW,2013-03-23 07:04:00,
2013-03-23 03:09:00,37.2,24.6,29.93,West,270,0.0,0.0,60,0.00,,,0.00,WUHU216HW,2013-03-23 07:09:00,
2013-03-23 03:14:00,37.2,24.6,29.93,West,270,0.0,0.0,60,0.00,,,0.00,WUHU216HW,2013-03-23 07:14:00,
2013-03-23 03:19:00,37.2,24.6,29.93,West,270,0.0,0.0,60,0.00,,,0.00,WUHU216HW,2013-03-23 07:19:00,
2013-03-23 03:24:00,37.2,24.6,29.93,West,270,0.0,0.0,60,0.00,,,0.00,WUHU216HW,2013-03-23 07:24:00,
2013-03-23 03:29:00,37.0,24.4,29.93,West,270,0.0,0.0,60,0.00,,,0.00,WUHU216HW,2013-03-23 07:29:00,
2013-03-23 03:34:00,37.0,24.4,29.93,West,270,0.0,0.0,60,0.00,,,0.00,WUHU216HW,2013-03-23 07:34:00,
2013-03-23 03:39:00,37.0,24.4,29.93,West,270,0.0,0.0,60,0.00,,,0.00,WUHU216HW,2013-03-23 07:39:00,
2013-03-23 03:44:00,36.8,24.3,29.93,West,270,0.0,0.0,60,0.00,,,0.00,WUHU216HW,2013-03-23 07:44:00,
2013-03-23 03:49:00,36.8,24.3,29.92,West,270,0.0,0.0,60,0.00,,,0.00,WUHU216HW,2013-03-23 07:49:00,
2013-03-23 03:54:00,36.8,24.6,29.92,West,270,0.0,0.0,61,0.00,,,0.00,WUHU216HW,2013-03-23 07:54:00,
2013-03-23 03:59:00,36.6,24.5,29.92,West,270,0.0,0.0,61,0.00,,,0.00,WUHU216HW,2013-03-23 07:59:00,
2013-03-23 04:04:00,36.6,24.5,29.92,West,270,0.0,0.0,61,0.00,,,0.00,WUHU216HW,2013-03-23 08:04:00,
2013-03-23 04:09:00,36.6,24.5,29.92,West,270,0.0,0.0,61,0.00,,,0.00,WUHU216HW,2013-03-23 08:09:00,
2013-03-23 04:14:00,36.6,24.5,29.92,West,270,0.0,0.0,61,0.00,,,0.00,WUHU216HW,2013-03-23 08:14:00,
2013-03-23 04:19:00,36.6,24.5,29.92,West,270,0.0,0.0,61,0.00,,,0.00,WUHU216HW,2013-03-23 08:19:00,
2013-03-23 04:24:00,36.5,24.3,29.92,West,270,0.0,0.0,61,0.00,,,0.00,WUHU216HW,2013-03-23 08:24:00,
2013-03-23 04:29:00,36.5,24.3,29.92,West,270,0.0,0.0,61,0.00,,,0.00,WUHU216HW,2013-03-23 08:29:00,
2013-03-23 04:34:00,36.5,24.3,29.92,West,270,0.0,0.0,61,0.00,,,0.00,WUHU216HW,2013-03-23 08:34:00,
2013-03-23 04:39:00,36.5,24.3,29.92,West,270,0.0,0.0,61,0.00,,,0.00,WUHU216HW,2013-03-23 08:39:00,
2013-03-23 04:44:00,36.5,24.3,29.92,West,270,0.0,0.0,61,0.00,,,0.00,WUHU216HW,2013-03-23 08:44:00,
2013-03-23 04:49:00,36.5,24.3,29.91,West,270,0.0,0.0,61,0.00,,,0.00,WUHU216HW,2013-03-23 08:49:00,
2013-03-23 04:54:00,36.5,24.3,29.91,West,270,0.0,0.0,61,0.00,,,0.00,WUHU216HW,2013-03-23 08:54:00,
2013-03-23 04:59:00,36.5,24.7,29.91,West,270,0.0,0.0,62,0.00,,,0.00,WUHU216HW,2013-03-23 08:59:00,
2013-03-23 05:04:00,36.3,24.5,29.92,West,270,0.0,0.0,62,0.00,,,0.00,WUHU216HW,2013-03-23 09:04:00,
2013-03-23 05:09:00,36.3,24.5,29.92,West,270,0.0,0.0,62,0.00,,,0.00,WUHU216HW,2013-03-23 09:09:00,
2013-03-23 05:14:00,36.3,24.5,29.92,West,270,0.0,0.0,62,0.00,,,0.00,WUHU216HW,2013-03-23 09:14:00,
2013-03-23 05:19:00,36.3,24.5,29.92,West,270,0.0,0.0,62,0.00,,,0.00,WUHU216HW,2013-03-23 09:19:00,
2013-03-23 05:24:00,36.3,24.5,29.92,West,270,0.0,0.0,62,0.00,,,0.00,WUHU216HW,2013-03-23 09:24:00,
2013-03-23 05:29:00,36.3,24.5,29.92,NW,315,0.0,0.0,62,0.00,,,0.00,WUHU216HW,2013-03-23 09:29:00,
2013-03-23 05:34:00,36.3,24.5,29.92,NW,315,0.0,0.0,62,0.00,,,0.00,WUHU216HW,2013-03-23 09:34:00,
2013-03-23 05:39:00,36.3,24.5,29.91,NW,315,0.0,0.0,62,0.00,,,0.00,WUHU216HW,2013-03-23 09:39:00,
2013-03-23 05:44:00,36.3,24.5,29.91,NW,315,0.0,0.0,62,0.00,,,0.00,WUHU216HW,2013-03-23 09:44:00,
2013-03-23 05:49:00,36.5,24.7,29.92,NW,315,0.0,0.0,62,0.00,,,0.00,WUHU216HW,2013-03-23 09:49:00,
2013-03-23 05:54:00,36.5,24.7,29.92,NW,315,0.0,0.0,62,0.00,,,0.00,WUHU216HW,2013-03-23 09:54:00,
2013-03-23 05:59:00,36.5,24.3,29.91,NW,315,0.0,0.0,61,0.00,,,0.00,WUHU216HW,2013-03-23 09:59:00,
2013-03-23 06:04:00,36.5,24.3,29.91,NW,315,0.0,0.0,61,0.00,,,0.00,WUHU216HW,2013-03-23 10:04:00,
2013-03-23 06:09:00,36.5,24.3,29.91,NW,315,0.0,0.0,61,0.00,,,0.00,WUHU216HW,2013-03-23 10:09:00,
2013-03-23 06:14:00,36.6,24.5,29.91,NW,315,0.0,0.0,61,0.00,,,0.00,WUHU216HW,2013-03-23 10:14:00,
2013-03-23 06:19:00,36.6,24.5,29.92,NW,315,0.0,0.0,61,0.00,,,0.00,WUHU216HW,2013-03-23 10:19:00,
2013-03-23 06:24:00,36.6,24.5,29.92,NW,315,0.0,0.0,61,0.00,,,0.00,WUHU216HW,2013-03-23 10:24:00,
2013-03-23 06:29:00,36.6,24.8,29.92,NW,315,0.0,0.0,62,0.00,,,0.00,WUHU216HW,2013-03-23 10:29:00,
2013-03-23 06:34:00,36.6,24.8,29.92,NW,315,0.0,0.0,62,0.00,,,0.00,WUHU216HW,2013-03-23 10:34:00,
2013-03-23 06:39:00,36.6,24.8,29.92,NW,315,0.0,0.0,62,0.00,,,0.00,WUHU216HW,2013-03-23 10:39:00,
2013-03-23 06:44:00,36.6,24.8,29.92,NW,315,0.0,0.0,62,0.00,,,0.00,WUHU216HW,2013-03-23 10:44:00,
2013-03-23 06:49:00,36.6,24.8,29.93,NW,315,0.0,0.0,62,0.00,,,0.00,WUHU216HW,2013-03-23 10:49:00,
2013-03-23 06:54:00,36.6,24.8,29.93,NW,315,0.0,0.0,62,0.00,,,0.00,WUHU216HW,2013-03-23 10:54:00,
2013-03-23 06:59:00,36.6,24.8,29.93,NW,315,0.0,0.0,62,0.00,,,0.00,WUHU216HW,2013-03-23 10:59:00,
2013-03-23 07:04:00,36.6,24.8,29.93,NW,315,0.0,0.0,62,0.00,,,0.00,WUHU216HW,2013-03-23 11:04:00,
2013-03-23 07:09:00,36.6,24.8,29.93,NW,315,0.0,0.0,62,0.00,,,0.00,WUHU216HW,2013-03-23 11:09:00,
2013-03-23 07:14:00,36.5,24.7,29.93,NW,315,0.0,0.0,62,0.00,,,0.00,WUHU216HW,2013-03-23 11:14:00,
2013-03-23 07:19:00,36.5,24.7,29.93,NW,315,0.0,0.0,62,0.00,,,0.00,WUHU216HW,2013-03-23 11:19:00,
2013-03-23 07:24:00,36.6,25.2,29.93,NW,315,0.0,0.0,63,0.00,,,0.00,WUHU216HW,2013-03-23 11:24:00,
2013-03-23 07:29:00,36.6,25.2,29.93,NW,315,0.0,0.0,63,0.00,,,0.00,WUHU216HW,2013-03-23 11:29:00,
2013-03-23 07:34:00,36.6,25.2,29.93,NW,315,0.0,0.0,63,0.00,,,0.00,WUHU216HW,2013-03-23 11:34:00,
2013-03-23 07:39:00,36.6,25.2,29.94,NW,315,0.0,0.0,63,0.00,,,0.00,WUHU216HW,2013-03-23 11:39:00,
2013-03-23 07:44:00,36.6,25.2,29.94,NW,315,0.0,0.0,63,0.00,,,0.00,WUHU216HW,2013-03-23 11:44:00,
2013-03-23 07:49:00,36.5,25.0,29.94,NW,315,0.0,0.0,63,0.00,,,0.00,WUHU216HW,2013-03-23 11:49:00,
2013-03-23 07:54:00,36.5,25.0,29.95,NW,315,0.0,0.0,63,0.00,,,0.00,WUHU216HW,2013-03-23 11:54:00,
2013-03-23 07:59:00,36.6,25.2,29.95,NW,315,0.0,0.0,63,0.00,,,0.00,WUHU216HW,2013-03-23 11:59:00,
2013-03-23 08:04:00,36.6,25.2,29.94,NW,315,0.0,0.0,63,0.00,,,0.00,WUHU216HW,2013-03-23 12:04:00,
2013-03-23 08:09:00,36.6,25.2,29.94,NW,315,0.0,0.0,63,0.00,,,0.00,WUHU216HW,2013-03-23 12:09:00,
2013-03-23 08:14:00,36.6,25.6,29.95,NW,315,0.0,0.0,64,0.00,,,0.00,WUHU216HW,2013-03-23 12:14:00,
2013-03-23 08:19:00,36.6,25.6,29.95,NW,315,0.0,0.0,64,0.00,,,0.00,WUHU216HW,2013-03-23 12:19:00,
2013-03-23 08:24:00,36.6,25.6,29.95,NW,315,0.0,0.0,64,0.00,,,0.00,WUHU216HW,2013-03-23 12:24:00,
2013-03-23 08:29:00,36.6,25.6,29.95,NW,315,0.0,0.0,64,0.00,,,0.00,WUHU216HW,2013-03-23 12:29:00,
2013-03-23 08:34:00,36.6,25.6,29.96,NW,315,0.0,0.0,64,0.00,,,0.00,WUHU216HW,2013-03-23 12:34:00,
2013-03-23 08:39:00,36.6,25.6,29.96,NW,315,0.0,0.0,64,0.00,,,0.00,WUHU216HW,2013-03-23 12:39:00,
2013-03-23 08:44:00,36.6,25.6,29.96,NW,315,0.0,0.0,64,0.00,,,0.00,WUHU216HW,2013-03-23 12:44:00,
2013-03-23 08:49:00,36.6,26.0,29.96,NW,315,0.0,0.0,65,0.00,,,0.00,WUHU216HW,2013-03-23 12:49:00,
2013-03-23 08:54:00,36.6,26.0,29.96,NW,315,0.0,0.0,65,0.00,,,0.00,WUHU216HW,2013-03-23 12:54:00,
2013-03-23 08:59:00,36.6,26.0,29.96,NW,315,0.0,0.0,65,0.00,,,0.00,WUHU216HW,2013-03-23 12:59:00,
2013-03-23 09:04:00,36.8,26.1,29.96,NW,315,0.0,0.0,65,0.00,,,0.00,WUHU216HW,2013-03-23 13:04:00,
2013-03-23 09:09:00,36.8,26.1,29.96,NW,315,0.0,0.0,65,0.00,,,0.00,WUHU216HW,2013-03-23 13:09:00,
2013-03-23 09:14:00,37.0,25.9,29.96,NW,315,0.0,0.0,64,0.00,,,0.00,WUHU216HW,2013-03-23 13:14:00,
2013-03-23 09:19:00,37.2,26.1,29.96,NW,315,0.0,0.0,64,0.00,,,0.00,WUHU216HW,2013-03-23 13:19:00,
2013-03-23 09:24:00,37.2,25.7,29.96,North,0,0.0,0.0,63,0.00,,,0.00,WUHU216HW,2013-03-23 13:24:00,
2013-03-23 09:29:00,37.2,25.3,29.96,NE,45,0.0,0.0,62,0.00,,,0.00,WUHU216HW,2013-03-23 13:29:00,
2013-03-23 09:34:00,37.4,25.5,29.96,NE,45,0.0,0.0,62,0.00,,,0.00,WUHU216HW,2013-03-23 13:34:00,
2013-03-23 09:39:00,37.5,25.7,29.96,NE,45,0.0,0.0,62,0.00,,,0.00,WUHU216HW,2013-03-23 13:39:00,
2013-03-23 09:44:00,37.5,25.3,29.96,NE,45,0.0,0.0,61,0.00,,,0.00,WUHU216HW,2013-03-23 13:44:00,
2013-03-23 09:49:00,37.7,25.5,29.96,NE,45,0.0,0.0,61,0.00,,,0.00,WUHU216HW,2013-03-23 13:49:00,
2013-03-23 09:54:00,37.9,25.2,29.96,NE,45,0.0,0.0,60,0.00,,,0.00,WUHU216HW,2013-03-23 13:54:00,
2013-03-23 09:59:00,37.9,25.2,29.96,ENE,68,0.0,0.0,60,0.00,,,0.00,WUHU216HW,2013-03-23 13:59:00,
2013-03-23 10:04:00,37.9,24.8,29.96,ENE,68,1.3,1.3,59,0.00,,,0.00,WUHU216HW,2013-03-23 14:04:00,
2013-03-23 10:09:00,38.3,25.1,29.96,NE,45,0.0,1.3,59,0.00,,,0.00,WUHU216HW,2013-03-23 14:09:00,
2013-03-23 10:14:00,38.4,25.3,29.96,NE,45,0.0,0.0,59,0.00,,,0.00,WUHU216HW,2013-03-23 14:14:00,
2013-03-23 10:19:00,38.6,25.5,29.97,ENE,68,0.0,0.0,59,0.00,,,0.00,WUHU216HW,2013-03-23 14:19:00,
2013-03-23 10:24:00,38.8,25.2,29.97,ENE,68,0.0,0.0,58,0.00,,,0.00,WUHU216HW,2013-03-23 14:24:00,
2013-03-23 10:29:00,39.0,25.3,29.96,ENE,68,0.0,0.0,58,0.00,,,0.00,WUHU216HW,2013-03-23 14:29:00,
2013-03-23 10:34:00,39.0,25.3,29.96,NE,45,0.0,0.0,58,0.00,,,0.00,WUHU216HW,2013-03-23 14:34:00,
2013-03-23 10:39:00,39.3,25.2,29.96,ENE,68,0.0,2.0,57,0.00,,,0.00,WUHU216HW,2013-03-23 14:39:00,
2013-03-23 10:44:00,39.7,25.6,29.96,ENE,68,0.0,2.0,57,0.00,,,0.00,WUHU216HW,2013-03-23 14:44:00,
2013-03-23 10:50:00,39.9,25.8,29.96,East,90,2.9,2.9,57,0.00,,,0.00,WUHU216HW,2013-03-23 14:50:00,
2013-03-23 10:55:00,40.6,26.0,29.96,East,90,0.0,4.2,56,0.00,,,0.00,WUHU216HW,2013-03-23 14:55:00,
2013-03-23 11:00:00,40.8,26.2,29.96,ENE,68,4.0,4.2,56,0.00,,,0.00,WUHU216HW,2013-03-23 15:00:00,
2013-03-23 11:05:00,41.3,26.3,29.96,NE,45,0.0,6.4,55,0.00,,,0.00,WUHU216HW,2013-03-23 15:05:00,
2013-03-23 11:10:00,41.7,26.6,29.96,NE,45,0.0,6.4,55,0.00,,,0.00,WUHU216HW,2013-03-23 15:10:00,
2013-03-23 11:15:00,42.4,27.3,29.96,SE,135,0.8,5.1,55,0.00,,,0.00,WUHU216HW,2013-03-23 15:15:00,
2013-03-23 11:20:00,42.6,27.0,29.96,SE,135,0.0,0.8,54,0.00,,,0.00,WUHU216HW,2013-03-23 15:20:00,
2013-03-23 11:25:00,42.9,27.1,29.96,ENE,68,2.9,2.9,53,0.00,,,0.00,WUHU216HW,2013-03-23 15:25:00,
2013-03-23 11:30:00,43.5,27.4,29.96,NE,45,0.0,2.9,53,0.00,,,0.00,WUHU216HW,2013-03-23 15:30:00,
2013-03-23 11:35:00,43.8,27.8,29.96,ESE,113,7.3,7.3,53,0.00,,,0.00,WUHU216HW,2013-03-23 15:35:00,
2013-03-23 11:40:00,44.4,27.6,29.96,ENE,68,5.1,7.3,52,0.00,,,0.00,WUHU216HW,2013-03-23 15:40:00,
2013-03-23 11:45:00,44.9,27.9,29.96,ENE,68,6.2,6.2,51,0.00,,,0.00,WUHU216HW,2013-03-23 15:45:00,
2013-03-23 11:50:00,45.1,28.0,29.96,SE,135,0.0,6.2,51,0.00,,,0.00,WUHU216HW,2013-03-23 15:50:00,
2013-03-23 11:55:00,45.6,28.1,29.96,SE,135,0.0,6.2,50,0.00,,,0.00,WUHU216HW,2013-03-23 15:55:00,
2013-03-23 12:00:00,45.6,27.5,29.96,ESE,113,0.0,4.6,49,0.00,,,0.00,WUHU216HW,2013-03-23 16:00:00,
2013-03-23 12:05:00,46.2,28.0,29.96,ESE,113,0.0,0.0,49,0.00,,,0.00,WUHU216HW,2013-03-23 16:05:00,
2013-03-23 12:10:00,46.5,27.8,29.96,NE,45,2.9,5.8,48,0.00,,,0.00,WUHU216HW,2013-03-23 16:10:00,
2013-03-23 12:15:00,46.7,28.0,29.96,NE,45,0.0,5.8,48,0.00,,,0.00,WUHU216HW,2013-03-23 16:15:00,
2013-03-23 12:20:00,46.9,28.1,29.96,SSE,158,0.0,4.9,48,0.00,,,0.00,WUHU216HW,2013-03-23 16:20:00,
2013-03-23 12:25:00,47.3,27.9,29.96,ENE,68,0.0,4.9,47,0.00,,,0.00,WUHU216HW,2013-03-23 16:25:00,
2013-03-23 12:30:00,47.4,27.5,29.95,ENE,68,0.0,6.9,46,0.00,,,0.00,WUHU216HW,2013-03-23 16:30:00,
2013-03-23 12:35:00,48.0,28.0,29.96,East,90,1.5,6.9,46,0.00,,,0.00,WUHU216HW,2013-03-23 16:35:00,
2013-03-23 12:40:00,48.3,28.3,29.96,ENE,68,0.0,4.9,46,0.00,,,0.00,WUHU216HW,2013-03-23 16:40:00,
2013-03-23 12:45:00,48.7,28.7,29.95,NE,45,0.0,1.5,46,0.00,,,0.00,WUHU216HW,2013-03-23 16:45:00,
2013-03-23 12:50:00,49.2,28.7,29.95,ESE,113,0.8,0.8,45,0.00,,,0.00,WUHU216HW,2013-03-23 16:50:00,
2013-03-23 12:55:00,49.6,29.0,29.95,East,90,0.0,0.8,45,0.00,,,0.00,WUHU216HW,2013-03-23 16:55:00,
2013-03-23 13:00:00,49.8,29.2,29.94,ENE,68,0.0,0.8,45,0.00,,,0.00,WUHU216HW,2013-03-23 17:00:00,
2013-03-23 13:05:00,50.3,29.7,29.94,SE,135,0.0,0.0,45,0.00,,,0.00,WUHU216HW,2013-03-23 17:05:00,
2013-03-23 13:10:00,50.7,29.4,29.94,ENE,68,0.0,0.0,44,0.00,,,0.00,WUHU216HW,2013-03-23 17:10:00,
2013-03-23 13:15:00,50.9,29.6,29.94,NE,45,5.3,5.3,44,0.00,,,0.00,WUHU216HW,2013-03-23 17:15:00,
2013-03-23 13:20:00,51.0,29.2,29.94,East,90,0.0,5.3,43,0.00,,,0.00,WUHU216HW,2013-03-23 17:20:00,
2013-03-23 13:25:00,51.6,30.2,29.93,ENE,68,0.0,3.1,44,0.00,,,0.00,WUHU216HW,2013-03-23 17:25:00,
2013-03-23 13:30:00,51.8,29.8,29.93,ENE,68,0.0,0.0,43,0.00,,,0.00,WUHU216HW,2013-03-23 17:30:00,
2013-03-23 13:35:00,52.1,30.2,29.93,NE,45,0.0,0.0,43,0.00,,,0.00,WUHU216HW,2013-03-23 17:35:00,
2013-03-23 13:40:00,52.3,29.8,29.93,ENE,68,0.0,0.0,42,0.00,,,0.00,WUHU216HW,2013-03-23 17:40:00,
2013-03-23 13:45:00,52.5,29.9,29.93,ESE,113,0.0,0.0,42,0.00,,,0.00,WUHU216HW,2013-03-23 17:45:00,
2013-03-23 13:50:00,53.0,30.4,29.93,ESE,113,0.0,0.0,42,0.00,,,0.00,WUHU216HW,2013-03-23 17:50:00,
2013-03-23 13:55:00,53.4,30.2,29.93,NE,45,0.0,0.0,41,0.00,,,0.00,WUHU216HW,2013-03-23 17:55:00,
2013-03-23 14:00:00,53.4,30.2,29.92,East,90,3.5,3.5,41,0.00,,,0.00,WUHU216HW,2013-03-23 18:00:00,
2013-03-23 14:05:00,53.7,30.0,29.93,ENE,68,0.0,4.6,40,0.00,,,0.00,WUHU216HW,2013-03-23 18:05:00,
2013-03-23 14:10:00,53.9,30.1,29.93,SSE,158,0.0,6.4,40,0.00,,,0.00,WUHU216HW,2013-03-23 18:10:00,
2013-03-23 14:15:00,53.7,30.0,29.93,NW,315,0.0,6.4,40,0.00,,,0.00,WUHU216HW,2013-03-23 18:15:00,
2013-03-23 14:20:00,54.1,30.3,29.92,NE,45,0.0,2.6,40,0.00,,,0.00,WUHU216HW,2013-03-23 18:20:00,
2013-03-23 14:25:00,54.3,30.4,29.92,NE,45,0.0,2.0,40,0.00,,,0.00,WUHU216HW,2013-03-23 18:25:00,
2013-03-23 14:30:00,54.6,30.1,29.92,ENE,68,0.0,4.0,39,0.00,,,0.00,WUHU216HW,2013-03-23 18:30:00,
2013-03-23 14:35:00,54.8,30.2,29.92,NW,315,0.0,4.0,39,0.00,,,0.00,WUHU216HW,2013-03-23 18:35:00,
2013-03-23 14:40:00,55.0,29.7,29.90,ENE,68,0.0,6.7,38,0.00,,,0.00,WUHU216HW,2013-03-23 18:40:00,
2013-03-23 14:45:00,55.0,30.4,29.90,NNE,23,0.0,6.7,39,0.00,,,0.00,WUHU216HW,2013-03-23 18:45:00,
2013-03-23 14:50:00,55.2,30.5,29.90,East,90,6.0,6.0,39,0.00,,,0.00,WUHU216HW,2013-03-23 18:50:00,
2013-03-23 14:55:00,55.7,31.0,29.90,ESE,113,0.0,6.0,39,0.00,,,0.00,WUHU216HW,2013-03-23 18:55:00,
2013-03-23 15:00:00,55.9,31.2,29.90,East,90,6.2,6.2,39,0.00,,,0.00,WUHU216HW,2013-03-23 19:00:00,
2013-03-23 15:05:00,56.1,30.7,29.90,North,0,0.8,6.2,38,0.00,,,0.00,WUHU216HW,2013-03-23 19:05:00,
2013-03-23 15:10:00,56.3,30.8,29.90,NE,45,0.0,0.8,38,0.00,,,0.00,WUHU216HW,2013-03-23 19:10:00,
2013-03-23 15:15:00,56.3,30.8,29.90,East,90,0.0,0.8,38,0.00,,,0.00,WUHU216HW,2013-03-23 19:15:00,
2013-03-23 15:20:00,56.4,31.0,29.89,North,0,5.5,5.5,38,0.00,,,0.00,WUHU216HW,2013-03-23 19:20:00,
2013-03-23 15:25:00,56.8,30.6,29.89,North,0,0.0,5.5,37,0.00,,,0.00,WUHU216HW,2013-03-23 19:25:00,
2013-03-23 15:30:00,56.6,30.4,29.88,South,180,0.0,5.5,37,0.00,,,0.00,WUHU216HW,2013-03-23 19:30:00,
2013-03-23 15:35:00,56.3,30.1,29.88,SE,135,0.0,0.0,37,0.00,,,0.00,WUHU216HW,2013-03-23 19:35:00,
2013-03-23 15:40:00,56.4,30.3,29.88,NNW,338,4.0,4.0,37,0.00,,,0.00,WUHU216HW,2013-03-23 19:40:00,
2013-03-23 15:45:00,56.4,30.3,29.87,NE,45,3.5,9.1,37,0.00,,,0.00,WUHU216HW,2013-03-23 19:45:00,
2013-03-23 15:50:00,56.6,30.4,29.87,NE,45,0.0,9.1,37,0.00,,,0.00,WUHU216HW,2013-03-23 19:50:00,
2013-03-23 15:55:00,56.8,30.6,29.87,NNE,23,5.8,5.8,37,0.00,,,0.00,WUHU216HW,2013-03-23 19:55:00,
2013-03-23 16:00:00,56.8,30.6,29.86,NE,45,3.5,5.8,37,0.00,,,0.00,WUHU216HW,2013-03-23 20:00:00,
2013-03-23 16:05:00,56.8,30.6,29.86,North,0,4.4,6.4,37,0.00,,,0.00,WUHU216HW,2013-03-23 20:05:00,
2013-03-23 16:10:00,57.0,30.8,29.86,NNE,23,8.0,8.0,37,0.00,,,0.00,WUHU216HW,2013-03-23 20:10:00,
2013-03-23 16:15:00,57.0,30.8,29.86,ENE,68,1.3,8.0,37,0.00,,,0.00,WUHU216HW,2013-03-23 20:15:00,
2013-03-23 16:20:00,57.0,30.8,29.86,ENE,68,2.9,4.4,37,0.00,,,0.00,WUHU216HW,2013-03-23 20:20:00,
2013-03-23 16:25:00,57.0,30.8,29.85,ESE,113,0.0,3.3,37,0.00,,,0.00,WUHU216HW,2013-03-23 20:25:00,
2013-03-23 16:30:00,57.0,30.8,29.85,East,90,2.4,4.0,37,0.00,,,0.00,WUHU216HW,2013-03-23 20:30:00,
2013-03-23 16:35:00,56.8,30.6,29.85,SE,135,0.0,4.4,37,0.00,,,0.00,WUHU216HW,2013-03-23 20:35:00,
2013-03-23 16:40:00,57.0,30.8,29.85,ENE,68,4.0,4.4,37,0.00,,,0.00,WUHU216HW,2013-03-23 20:40:00,
2013-03-23 16:45:00,57.0,30.8,29.85,NE,45,2.9,4.0,37,0.00,,,0.00,WUHU216HW,2013-03-23 20:45:00,
2013-03-23 16:50:00,57.3,31.1,29.85,NNE,23,4.2,4.2,37,0.00,,,0.00,WUHU216HW,2013-03-23 20:50:00,
2013-03-23 16:55:00,57.3,31.1,29.84,ESE,113,0.0,4.2,37,0.00,,,0.00,WUHU216HW,2013-03-23 20:55:00,
2013-03-23 17:00:00,57.5,31.4,29.84,ENE,68,0.0,5.5,37,0.00,,,0.00,WUHU216HW,2013-03-23 21:00:00,
2013-03-23 17:05:00,57.7,30.7,29.84,ESE,113,8.2,8.2,36,0.00,,,0.00,WUHU216HW,2013-03-23 21:05:00,
2013-03-23 17:10:00,57.7,31.4,29.83,NE,45,0.0,8.2,37,0.00,,,0.00,WUHU216HW,2013-03-23 21:10:00,
2013-03-23 17:15:00,57.9,31.6,29.83,NNE,23,3.5,8.2,37,0.00,,,0.00,WUHU216HW,2013-03-23 21:15:00,
2013-03-23 17:20:00,58.2,31.9,29.83,NE,45,6.4,6.4,37,0.00,,,0.00,WUHU216HW,2013-03-23 21:20:00,
2013-03-23 17:25:00,58.2,31.2,29.83,ENE,68,0.8,6.4,36,0.00,,,0.00,WUHU216HW,2013-03-23 21:25:00,
2013-03-23 17:30:00,58.4,31.2,29.83,ENE,68,1.1,6.4,36,0.00,,,0.00,WUHU216HW,2013-03-23 21:30:00,
2013-03-23 17:35:00,58.6,31.5,29.83,ESE,113,0.0,2.6,36,0.00,,,0.00,WUHU216HW,2013-03-23 21:35:00,
2013-03-23 17:40:00,58.8,31.7,29.83,ESE,113,6.2,6.2,36,0.00,,,0.00,WUHU216HW,2013-03-23 21:40:00,
2013-03-23 17:45:00,58.8,31.7,29.83,East,90,0.0,6.2,36,0.00,,,0.00,WUHU216HW,2013-03-23 21:45:00,
2013-03-23 17:50:00,58.8,31.7,29.83,SE,135,0.0,6.2,36,0.00,,,0.00,WUHU216HW,2013-03-23 21:50:00,
2013-03-23 17:55:00,58.8,31.7,29.83,NE,45,0.0,6.0,36,0.00,,,0.00,WUHU216HW,2013-03-23 21:55:00,
2013-03-23 18:00:00,58.6,31.5,29.83,NE,45,0.0,6.0,36,0.00,,,0.00,WUHU216HW,2013-03-23 22:00:00,
2013-03-23 18:05:00,58.2,31.2,29.83,East,90,1.5,4.0,36,0.00,,,0.00,WUHU216HW,2013-03-23 22:05:00,
2013-03-23 18:10:00,57.9,30.9,29.83,ENE,68,3.3,4.0,36,0.00,,,0.00,WUHU216HW,2013-03-23 22:10:00,
2013-03-23 18:15:00,57.7,30.7,29.83,East,90,1.7,3.3,36,0.00,,,0.00,WUHU216HW,2013-03-23 22:15:00,
2013-03-23 18:20:00,57.3,30.4,29.84,ENE,68,0.0,1.7,36,0.00,,,0.00,WUHU216HW,2013-03-23 22:20:00,
2013-03-23 18:25:00,57.0,30.1,29.84,ENE,68,0.0,2.9,36,0.00,,,0.00,WUHU216HW,2013-03-23 22:25:00,
2013-03-23 18:30:00,56.4,29.9,29.84,East,90,2.4,2.9,36,0.00,,,0.00,WUHU216HW,2013-03-23 22:30:00,
2013-03-23 18:35:00,56.4,29.6,29.84,ENE,68,5.8,5.8,36,0.00,,,0.00,WUHU216HW,2013-03-23 22:35:00,
2013-03-23 18:40:00,56.1,29.3,29.84,ENE,68,2.9,6.4,36,0.00,,,0.00,WUHU216HW,2013-03-23 22:40:00,
2013-03-23 18:45:00,55.5,28.8,29.84,ENE,68,0.0,6.4,36,0.00,,,0.00,WUHU216HW,2013-03-23 22:45:00,
2013-03-23 18:50:00,55.2,28.4,29.83,ENE,68,0.0,4.6,36,0.00,,,0.00,WUHU216HW,2013-03-23 22:50:00,
2013-03-23 18:55:00,55.2,29.1,29.84,East,90,0.0,6.2,37,0.00,,,0.00,WUHU216HW,2013-03-23 22:55:00,
2013-03-23 19:00:00,55.0,29.0,29.83,ENE,68,3.8,6.7,37,0.00,,,0.00,WUHU216HW,2013-03-23 23:00:00,
2013-03-23 19:05:00,54.6,28.7,29.83,ESE,113,0.0,6.7,37,0.00,,,0.00,WUHU216HW,2013-03-23 23:05:00,
2013-03-23 19:10:00,54.3,28.4,29.83,ENE,68,0.0,4.0,37,0.00,,,0.00,WUHU216HW,2013-03-23 23:10:00,
2013-03-23 19:15:00,53.7,28.7,29.83,NE,45,3.1,3.3,38,0.00,,,0.00,WUHU216HW,2013-03-23 23:15:00,
2013-03-23 19:20:00,53.4,28.3,29.83,NE,45,1.7,7.3,38,0.00,,,0.00,WUHU216HW,2013-03-23 23:20:00,
2013-03-23 19:25:00,53.2,28.1,29.83,ENE,68,0.0,7.3,38,0.00,,,0.00,WUHU216HW,2013-03-23 23:25:00,
2013-03-23 19:30:00,52.7,28.3,29.83,East,90,0.0,1.7,39,0.00,,,0.00,WUHU216HW,2013-03-23 23:30:00,
2013-03-23 19:35:00,52.3,28.0,29.84,ENE,68,0.0,4.4,39,0.00,,,0.00,WUHU216HW,2013-03-23 23:35:00,
2013-03-23 19:40:00,52.1,27.8,29.84,NE,45,0.0,4.4,39,0.00,,,0.00,WUHU216HW,2013-03-23 23:40:00,
2013-03-23 19:45:00,51.9,27.6,29.84,ESE,113,0.0,3.8,39,0.00,,,0.00,WUHU216HW,2013-03-23 23:45:00,
2013-03-23 19:50:00,51.6,28.0,29.84,ENE,68,0.0,3.8,40,0.00,,,0.00,WUHU216HW,2013-03-23 23:50:00,
2013-03-23 19:55:00,51.4,27.8,29.83,NE,45,0.0,3.8,40,0.00,,,0.00,WUHU216HW,2013-03-23 23:55:00,
2013-03-23 20:00:00,51.0,27.5,29.83,ENE,68,0.0,6.0,40,0.00,,,0.00,WUHU216HW,2013-03-24 00:00:00,
2013-03-23 20:05:00,50.7,27.2,29.83,ENE,68,0.0,6.0,40,0.00,,,0.00,WUHU216HW,2013-03-24 00:05:00,
2013-03-23 20:11:00,50.5,27.6,29.83,ENE,68,0.8,0.8,41,0.00,,,0.00,WUHU216HW,2013-03-24 00:11:00,
2013-03-23 20:16:00,50.1,27.3,29.82,East,90,0.0,1.1,41,0.00,,,0.00,WUHU216HW,2013-03-24 00:16:00,
2013-03-23 20:21:00,49.8,26.9,29.82,NE,45,0.0,1.1,41,0.00,,,0.00,WUHU216HW,2013-03-24 00:21:00,
2013-03-23 20:26:00,49.8,26.9,29.82,ENE,68,0.0,0.0,41,0.00,,,0.00,WUHU216HW,2013-03-24 00:26:00,
2013-03-23 20:31:00,49.6,26.8,29.82,NE,45,0.0,3.3,41,0.00,,,0.00,WUHU216HW,2013-03-24 00:31:00,
2013-03-23 20:36:00,49.2,27.0,29.82,ENE,68,0.0,3.3,42,0.00,,,0.00,WUHU216HW,2013-03-24 00:36:00,
2013-03-23 20:41:00,49.1,26.3,29.82,ENE,68,0.0,0.0,41,0.00,,,0.00,WUHU216HW,2013-03-24 00:41:00,
2013-03-23 20:46:00,48.7,26.0,29.81,NE,45,0.0,0.0,41,0.00,,,0.00,WUHU216HW,2013-03-24 00:46:00,
2013-03-23 20:51:00,48.7,26.5,29.82,ESE,113,1.5,1.5,42,0.00,,,0.00,WUHU216HW,2013-03-24 00:51:00,
2013-03-23 20:56:00,48.5,26.3,29.81,ENE,68,0.0,1.5,42,0.00,,,0.00,WUHU216HW,2013-03-24 00:56:00,
2013-03-23 21:01:00,48.3,26.2,29.81,NE,45,4.9,4.9,42,0.00,,,0.00,WUHU216HW,2013-03-24 01:01:00,
2013-03-23 21:06:00,48.0,25.8,29.81,ENE,68,0.0,4.9,42,0.00,,,0.00,WUHU216HW,2013-03-24 01:06:00,
2013-03-23 21:11:00,48.0,25.8,29.80,NE,45,0.0,4.9,42,0.00,,,0.00,WUHU216HW,2013-03-24 01:11:00,
2013-03-23 21:16:00,47.8,26.2,29.80,ENE,68,0.0,0.0,43,0.00,,,0.00,WUHU216HW,2013-03-24 01:16:00,
2013-03-23 21:21:00,47.6,26.1,29.80,NE,45,0.0,0.0,43,0.00,,,0.00,WUHU216HW,2013-03-24 01:21:00,
2013-03-23 21:26:00,47.4,25.9,29.81,ENE,68,0.0,0.0,43,0.00,,,0.00,WUHU216HW,2013-03-24 01:26:00,
2013-03-23 21:31:00,47.3,25.7,29.80,ENE,68,0.0,0.0,43,0.00,,,0.00,WUHU216HW,2013-03-24 01:31:00,
2013-03-23 21:36:00,47.1,25.6,29.80,ENE,68,0.0,0.0,43,0.00,,,0.00,WUHU216HW,2013-03-24 01:36:00,
2013-03-23 21:41:00,47.1,25.6,29.80,NE,45,0.0,1.3,43,0.00,,,0.00,WUHU216HW,2013-03-24 01:41:00,
2013-03-23 21:46:00,46.9,26.0,29.80,ENE,68,0.0,1.3,44,0.00,,,0.00,WUHU216HW,2013-03-24 01:46:00,
2013-03-23 21:51:00,46.9,26.0,29.80,ENE,68,0.0,0.0,44,0.00,,,0.00,WUHU216HW,2013-03-24 01:51:00,
2013-03-23 21:56:00,46.5,25.6,29.80,ENE,68,0.0,0.0,44,0.00,,,0.00,WUHU216HW,2013-03-24 01:56:00,
2013-03-23 22:01:00,46.5,25.6,29.80,ENE,68,0.0,0.0,44,0.00,,,0.00,WUHU216HW,2013-03-24 02:01:00,
2013-03-23 22:06:00,46.2,25.3,29.80,ENE,68,0.0,0.0,44,0.00,,,0.00,WUHU216HW,2013-03-24 02:06:00,
2013-03-23 22:11:00,46.2,25.3,29.79,ENE,68,0.0,0.0,44,0.00,,,0.00,WUHU216HW,2013-03-24 02:11:00,
2013-03-23 22:16:00,46.0,25.7,29.79,NE,45,2.4,2.4,45,0.00,,,0.00,WUHU216HW,2013-03-24 02:16:00,
2013-03-23 22:21:00,46.0,25.7,29.79,ENE,68,0.0,2.4,45,0.00,,,0.00,WUHU216HW,2013-03-24 02:21:00,
2013-03-23 22:26:00,45.6,25.4,29.79,NE,45,0.0,2.4,45,0.00,,,0.00,WUHU216HW,2013-03-24 02:26:00,
2013-03-23 22:31:00,45.5,25.7,29.80,ENE,68,0.0,0.0,46,0.00,,,0.00,WUHU216HW,2013-03-24 02:31:00,
2013-03-23 22:36:00,45.3,25.6,29.79,NE,45,0.0,0.0,46,0.00,,,0.00,WUHU216HW,2013-03-24 02:36:00,
2013-03-23 22:41:00,45.1,25.4,29.79,East,90,4.6,4.6,46,0.00,,,0.00,WUHU216HW,2013-03-24 02:41:00,
2013-03-23 22:46:00,44.9,25.3,29.79,ENE,68,0.0,4.6,46,0.00,,,0.00,WUHU216HW,2013-03-24 02:46:00,
2013-03-23 22:51:00,44.9,25.8,29.79,NE,45,0.0,4.6,47,0.00,,,0.00,WUHU216HW,2013-03-24 02:51:00,
2013-03-23 22:56:00,44.7,25.6,29.79,ENE,68,0.0,0.0,47,0.00,,,0.00,WUHU216HW,2013-03-24 02:56:00,
2013-03-23 23:01:00,44.6,25.5,29.79,ENE,68,0.0,0.0,47,0.00,,,0.00,WUHU216HW,2013-03-24 03:01:00,
2013-03-23 23:06:00,44.4,25.3,29.79,NE,45,0.0,0.2,47,0.00,,,0.00,WUHU216HW,2013-03-24 03:06:00,
2013-03-23 23:11:00,44.4,25.8,29.79,NE,45,0.0,0.2,48,0.00,,,0.00,WUHU216HW,2013-03-24 03:11:00,
2013-03-23 23:16:00,44.2,25.7,29.79,NE,45,0.0,0.0,48,0.00,,,0.00,WUHU216HW,2013-03-24 03:16:00,
2013-03-23 23:21:00,44.2,25.7,29.78,ENE,68,0.0,1.5,48,0.00,,,0.00,WUHU216HW,2013-03-24 03:21:00,
2013-03-23 23:27:00,44.2,25.7,29.78,NE,45,0.0,1.5,48,0.00,,,0.00,WUHU216HW,2013-03-24 03:27:00,
2013-03-23 23:32:00,44.2,25.7,29.78,ENE,68,0.0,0.0,48,0.00,,,0.00,WUHU216HW,2013-03-24 03:32:00,
2013-03-23 23:37:00,44.2,26.2,29.78,ESE,113,0.0,0.0,49,0.00,,,0.00,WUHU216HW,2013-03-24 03:37:00,
2013-03-23 23:42:00,44.0,26.1,29.77,NE,45,0.0,0.0,49,0.00,,,0.00,WUHU216HW,2013-03-24 03:42:00,
2013-03-23 23:47:00,44.0,26.1,29.77,ENE,68,0.0,0.0,49,0.00,,,0.00,WUHU216HW,2013-03-24 03:47:00,
2013-03-23 23:52:00,43.8,25.9,29.77,ENE,68,0.0,0.0,49,0.00,,,0.00,WUHU216HW,2013-03-24 03:52:00,
2013-03-23 23:57:00,43.8,25.9,29.77,ENE,68,0.0,0.0,49,0.00,,,0.00,WUHU216HW,2013-03-24 03:57:00,